"Pseudo-MPEC" for P10Mg4l

Created 2019 Feb 13 5:18:56 UT using Find_Orb

Click here for an explanation of pseudo-MPECs

 
 Astrometry: 
     P10Mg4l  C2019 02 08._Xo%(F^oIE(P2q7/?x*SODEd__:2Dwt]Vjb8jAstrometryF.nFF51
     P10Mg4l  C2019 02 08'3L4bJ4'/sAu=JNnbg^bO,.?*g[?/=S5Qo`ePI8qEUjo/cK_!4hbF51
     P10Mg4l  C2019 02 08r`?blhH1?qJjpYZ?CSredacted;\nl^([KCl4@Xa[QI'@K89v)GPF51
     P10Mg4l  C2019 02 08=apRauO-cJf$+='27R$P)u4PKRpxW?eNZ5[ud0)(4o,sf4+$@dTIF51
     P10Mg4l KC2019 02 09b+i'Z$qoy5Y(=nwJgd^MB$7v(Ps[nG+0SukgS\RR;[Ic2sQP1$rjH36
     P10Mg4l KC2019 02 09GC9Wvh=A?SsKI.t2unc%YAx#j!OCw]clickj@v!qXh_wB2HkuB#pH36
     P10Mg4l KC2019 02 09'a(1*YnOTD*Kbb9!95gab^^X(Y.,O546yuQm$+kb0-KJ.9OZ@8XJH36
     P10Mg4l  C2019 02 11.26731 10 36 37.82 +28 13 15.8    ~2B73 20.9 GVNEOCPI52
     P10Mg4l  C2019 02 11.26876 10 36 37.62 +28 13 15.4    ~2B73 20.6 GVNEOCPI52
     P10Mg4l  C2019 02 11.26952 10 36 37.49 +28 13 15.9    ~2B73 20.4 GVNEOCPI52
     P10Mg4l  C2019 02 12.21483 10 34 15.49 +28 08 46.1    ~2C5X 19.9 GVNEOCPI52
     P10Mg4l  C2019 02 12.21560 10 34 15.24 +28 08 45.9    ~2C5X 19.5 GVNEOCPI52
     P10Mg4l  C2019 02 12.21728 10 34 14.91 +28 08 44.0    ~2C5X 19.2 GVNEOCPI52
     P10Mg4l KC2019 02 12AW@@,qg0here#XL3eQ7MpQPKnn]?nNQ!nyv%sek]OHo54S'a#XS]587
     P10Mg4l KC2019 02 12]Kp6HPd;UkWqml,sG$+?WB,37]N.i?V?)u48Q%ILobMid+N)bKiO587
     P10Mg4l KC2019 02 12)(Qe6W1Z4BPvos`!D=LgFHHYb2TEn_G4f7EQSePVEOPqWh=%6PA^587
     P10Mg4l KC2019 02 12$*;20'bfCaoyaT21BP62ZWi?wfor`cdE'hOB:#bZJ*Te*.x;*(+pL01
     P10Mg4l KC2019 02 12xWx%y(TBY4@,h`jP8_4tD^6`DrSCpdvPd$RrFehy/cAI-Kam_57DL01
     P10Mg4l IC2019 02 12n$;DB?P:?o(vok_j:lU9Uj+S]u9voa0+B*56#_?yT08x%_:4xJ%)L01
     P10Mg4l IC2019 02 12HPq2[npexplanationK*t0IM4fp9KeMI5,-l''EpxGFp4[d*`HXJL01

Station data:
(587) Sormano  (N45.882949 E9.229180)  Italy.  Observers F. Manca, A. Testa.
   Measurer F. Manca. 0.5-m + CCD.
(F51) Pan-STARRS 1, Haleakala  (N20.707235 W156.255910)  US/Hawaii.
   Observers N. Primak, A. Schultz, S. Watters, J. Thiel, T. Goggia. Measurer
   PS1 Science Consortium. 1.8-m Ritchey-Chrétien + CCD.
(H36) Sandlot Observatory, Scranton  (N38.797693 W95.706400)  US/Kansas.
   Observer G. Hug. 0.56-m reflector + CCD.
(I52) Steward Observatory, Mt. Lemmon Station  (N32.442547 W110.788920)
   US/Arizona.  Observers B. M. Africano, E. J. Christensen, G. A. Farneth,
   D. C. Fuls, A. R. Gibbs, A. D. Grauer, H. Groeller, J. A. Johnson, R. A.
   Kowalski, S. M. Larson, G. J. Leonard, R. L. Seaman, F. C. Shelly. 1.0-m
   reflector + CCD.
(L01) Višnjan Observatory, Tičan  (N45.290900 E13.749300)  Croatia.
   Observers K. Korlević, E. Pettarin. Measurer E. Pettarin. 1.0-m f/2.9
   reflector + CCD.

Orbital elements:  P10Mg4l
   Perihelion 2019 May 17.882917 +/- 0.208 TT = 21:11:24 (JD 2458621.382917)
Epoch 2019 Feb 12.0 TT = JDT 2458526.5   Earth MOID: 0.0731   AutoNEOCP
M 300.42631172 +/- 0.6              (J2000 ecliptic)
n   0.62786526 +/- 0.00576          Peri.  263.76463 +/- 0.038
a   1.35069847 +/- 0.00827          Node   341.71370 +/- 0.06
e   0.3628338 +/- 0.00552           Incl.   13.20349 +/- 0.16
P   1.57/573.36d           H 21.9   G  0.15   U  9.3  
q 0.86061930 +/- 0.0022    Q 1.84077763 +/- 0.0186
From 20 observations 2019 Feb. 8-12; mean residual 0".45
Residuals in arcseconds: 
190208 F51  .06+  .14-    190211 I52  .03-  .06+    190212 587  .03+  .06+    
190208 F51  .06-  .20-    190211 I52  .33+  .02-    190212 587  .00   .13-    
190208 F51  .03-  .11-    190211 I52  .18+  .64+    190212 L01  .04+  .18+    
190208 F51  .06-  .17-    190212 I52  1.0+  .13-    190212 L01  .20-  .07+    
190209 H36  .08+  .13+    190212 I52  .61-  .14-    190212 L01  .08+  .57+    
190209 H36  .31+  .24+    190212 I52  1.4-  1.6-    190212 L01  .09-  .39+    
190209 H36  .34-  .38+    190212 587  .49+  .25-    

Ephemerides (geocentric):
Date (UTC) HH   RA              Dec         delta   r     elong  mag " sig PA
---- -- -- --  -------------   -----------  ------ ------ -----  --- ---- ---
2019 02 13 05  10 31 35.286   +28 03 21.86  .28290 1.2592 161.9 20.5 .144  82
2019 02 13 06  10 31 28.432   +28 03 06.76  .28261 1.2590 161.9 20.5 .143  78
2019 02 13 07  10 31 21.563   +28 02 51.57  .28232 1.2587 161.9 20.4 .143  74
2019 02 13 08  10 31 14.677   +28 02 36.27  .28203 1.2585 162.0 20.4 .144  69
2019 02 13 09  10 31 07.774   +28 02 20.87  .28174 1.2582 162.0 20.4 .146  65
2019 02 13 10  10 31 00.856   +28 02 05.37  .28146 1.2580 162.0 20.4 .148  61
2019 02 13 11  10 30 53.921   +28 01 49.77  .28117 1.2578 162.1 20.4 .151  56
2019 02 13 12  10 30 46.970   +28 01 34.06  .28088 1.2575 162.1 20.4 .155  52
2019 02 13 13  10 30 40.002   +28 01 18.25  .28059 1.2573 162.1 20.4 .160  48
2019 02 13 14  10 30 33.018   +28 01 02.34  .28031 1.2571 162.2 20.4 .165  44
2019 02 13 15  10 30 26.018   +28 00 46.32  .28002 1.2568 162.2 20.4 .171  41
2019 02 13 16  10 30 19.001   +28 00 30.20  .27974 1.2566 162.2 20.4 .178  37
2019 02 13 17  10 30 11.968   +28 00 13.97  .27945 1.2564 162.2 20.4 .185  34
2019 02 13 18  10 30 04.919   +27 59 57.64  .27916 1.2561 162.3 20.4 .193  31
2019 02 13 19  10 29 57.853   +27 59 41.20  .27888 1.2559 162.3 20.4 .202  28
2019 02 13 20  10 29 50.770   +27 59 24.66  .27859 1.2557 162.3 20.4 .211  25
2019 02 13 21  10 29 43.671   +27 59 08.01  .27831 1.2554 162.4 20.4 .221  22
2019 02 13 22  10 29 36.556   +27 58 51.25  .27802 1.2552 162.4 20.4 .232  20
2019 02 13 23  10 29 29.424   +27 58 34.39  .27774 1.2549 162.4 20.4 .243  17
2019 02 14 00  10 29 22.276   +27 58 17.41  .27745 1.2547 162.4 20.4 .254  15
2019 02 14 01  10 29 15.111   +27 58 00.33  .27717 1.2545 162.5 20.4 .266  13
2019 02 14 02  10 29 07.929   +27 57 43.14  .27689 1.2542 162.5 20.4 .278  11
2019 02 14 03  10 29 00.732   +27 57 25.85  .27660 1.2540 162.5 20.4 .291  10
2019 02 14 04  10 28 53.517   +27 57 08.44  .27632 1.2538 162.5 20.4 .304   8
2019 02 14 05  10 28 46.286   +27 56 50.92  .27604 1.2535 162.6 20.4 .317   6
2019 02 14 06  10 28 39.038   +27 56 33.30  .27575 1.2533 162.6 20.4 .331   5
2019 02 14 07  10 28 31.774   +27 56 15.56  .27547 1.2531 162.6 20.4 .345   3
2019 02 14 08  10 28 24.493   +27 55 57.71  .27519 1.2528 162.7 20.4 .360   2
2019 02 14 09  10 28 17.196   +27 55 39.75  .27491 1.2526 162.7 20.4 .375   1
2019 02 14 10  10 28 09.882   +27 55 21.68  .27462 1.2523 162.7 20.4 .391 179
2019 02 14 11  10 28 02.551   +27 55 03.50  .27434 1.2521 162.7 20.4 .406 178
2019 02 14 12  10 27 55.203   +27 54 45.20  .27406 1.2519 162.8 20.4 .422 177
2019 02 14 13  10 27 47.839   +27 54 26.79  .27378 1.2516 162.8 20.4 .439 176
2019 02 14 14  10 27 40.458   +27 54 08.27  .27350 1.2514 162.8 20.3 .456 175
2019 02 14 15  10 27 33.061   +27 53 49.63  .27322 1.2512 162.8 20.3 .473 174
2019 02 14 16  10 27 25.647   +27 53 30.88  .27294 1.2509 162.9 20.3 .490 173
2019 02 14 17  10 27 18.216   +27 53 12.02  .27266 1.2507 162.9 20.3 .508 172
2019 02 14 18  10 27 10.768   +27 52 53.04  .27238 1.2505 162.9 20.3 .527 171
2019 02 14 19  10 27 03.303   +27 52 33.94  .27210 1.2502 162.9 20.3 .545 170
2019 02 14 20  10 26 55.822   +27 52 14.73  .27182 1.2500 163.0 20.3 .564 170
2019 02 14 21  10 26 48.324   +27 51 55.40  .27154 1.2497 163.0 20.3 .583 169
2019 02 14 22  10 26 40.809   +27 51 35.96  .27126 1.2495 163.0 20.3 .603 168
2019 02 14 23  10 26 33.277   +27 51 16.40  .27098 1.2493 163.0 20.3 .623 167
2019 02 15 00  10 26 25.729   +27 50 56.72  .27071 1.2490 163.1 20.3 .643 167
2019 02 15 01  10 26 18.163   +27 50 36.92  .27043 1.2488 163.1 20.3 .664 166
2019 02 15 02  10 26 10.581   +27 50 17.01  .27015 1.2486 163.1 20.3 .685 165
2019 02 15 03  10 26 02.982   +27 49 56.97  .26987 1.2483 163.1 20.3 .706 165
2019 02 15 04  10 25 55.366   +27 49 36.82  .26959 1.2481 163.2 20.3 .728 164